Weather History for LEBA - March, 2014

Change the Weather History Date:

Wednesday, March 19, 2014

  Actual Average Record
Temperature  
Mean Temperature 60 °F -  
Max Temperature 75 °F - - ()
Min Temperature 46 °F - - ()
Degree Days  
Heating Degree Days 4    
Growing Degree Days 10 (Base 50)    
Moisture  
Dew Point 49 °F    
Average Humidity 65    
Maximum Humidity 89    
Minimum Humidity 37    
Precipitation  
Precipitation 0.00 in 0.08 in - ()
Sea Level Pressure  
Sea Level Pressure 30.11 in    
Wind  
Wind Speed 2 mph ()    
Max Wind Speed 10 mph    
Max Gust Speed -    
Visibility 13.3 miles    
Events      
T = Trace of Precipitation, MM = Missing Value Source: Averaged Metar Reports

Daily Weather History Graph

Daily Weather History Graph

Search for Another Location

Airport or City:

Trip Planner

Search our weather history database for the weather conditions in past years. The results will help you decide how hot, cold, wet, or windy it might be!

Date:

Astronomy

Mar. 19, 2014 Rise Set
Actual Time 7:24 AM CET 7:30 PM CET
Civil Twilight 6:58 AM CET 7:56 PM CET
Nautical Twilight 6:28 AM CET 8:26 PM CET
Astronomical Twilight 5:57 AM CET 8:58 PM CET
Moon 10:30 PM CET (3/19) 8:44 AM CET (3/19)
Length of Visible Light 12h 57m
Length of Day
12h 05m
Waning Gibbous, 92% of the Moon is Illuminated
Mar 19
Waning Gibbous
Mar 24
Last Quarter
Mar 30
New
Apr 7
First Quarter
Apr 15
Full

Hourly Weather History & Observations

Time (CET) Temp. Dew Point Humidity Pressure Visibility Wind Dir Wind Speed Gust Speed Precip Events Conditions
12:00 AM 56 °F 47 °F 63% 30.13 in - West 1.2 mph - -  
1:00 AM 54 °F 47 °F 70% 30.13 in - SW 2.3 mph - -  
2:00 AM 54 °F 47 °F 70% 30.12 in - Calm Calm - -  
3:00 AM 52 °F 46 °F 75% 30.11 in - Calm Calm - -  
4:00 AM 49 °F 46 °F 83% 30.10 in - Calm Calm - -  
5:00 AM 48 °F 46 °F 88% 30.11 in - NE 1.2 mph - -  
6:00 AM 48 °F 45 °F 86% 30.11 in - Calm Calm - -  
7:00 AM 47 °F 45 °F 89% 30.12 in 16 mi SSW 2.3 mph - -   Mostly Cloudy
7:00 AM 48.2 °F 44.6 °F 87% 30.09 in - SSW 1.2 mph - N/A   Clear
8:00 AM 48 °F 45 °F 85% 30.13 in - Calm Calm - -  
8:00 AM 48.2 °F 44.6 °F 87% 30.12 in - Calm Calm - N/A   Clear
9:00 AM 54 °F 48 °F 74% 30.15 in - Calm Calm - -  
9:00 AM 55.4 °F 48.2 °F 77% 30.12 in - Calm Calm - N/A   Clear
10:00 AM 60 °F 48 °F 55% 30.17 in 16 mi Calm Calm - -   Scattered Clouds
10:00 AM 59.0 °F 46.4 °F 63% 30.15 in - Calm Calm - N/A   Clear
11:00 AM 62.6 °F 50.0 °F 63% 30.15 in - Variable 1.2 mph - N/A   Clear
12:00 PM 64.4 °F 50.0 °F 59% 30.15 in - Calm Calm - N/A   Clear
2:00 PM 71.6 °F 53.6 °F 53% 30.12 in - WSW 5.8 mph - N/A   Clear
3:00 PM 71.6 °F 50.0 °F 46% 30.09 in - WSW 5.8 mph - N/A   Clear
4:00 PM 73.4 °F 51.8 °F 47% 30.06 in - West 9.2 mph - N/A   Clear
5:00 PM 74 °F 53 °F 37% 30.06 in - WSW 10.4 mph - -  
5:00 PM 73.4 °F 50.0 °F 44% 30.06 in - WSW 9.2 mph - N/A   Clear
6:00 PM 72 °F 53 °F 41% 30.06 in - WSW 8.1 mph - -  
6:00 PM 71.6 °F 51.8 °F 50% 30.06 in - WSW 8.1 mph - N/A   Clear
7:00 PM 68 °F 54 °F 51% 30.07 in 12 mi WSW 4.6 mph - -   Clear
7:00 PM 68.0 °F 53.6 °F 60% 30.06 in - WSW 5.8 mph - N/A   Clear
8:00 PM 65 °F 52 °F 52% 30.09 in - WSW 8.1 mph - -  
8:00 PM 64.4 °F 51.8 °F 64% 30.06 in - WSW 8.1 mph - N/A   Clear
9:00 PM 60 °F 51 °F 63% 30.11 in - West 5.8 mph - -  
10:00 PM 59 °F 50 °F 65% 30.12 in 9 mi SW 5.8 mph - -   Partly Cloudy
11:00 PM 59 °F 49 °F 62% 30.13 in - SW 8.1 mph - -